Location: ?????????
(54.7630°N, 39.4991°E)
Time: 10:10:17
(UTC+00:00)

MOS 1 - Pass Details

Date: 14 April 2026
Orbit: 877 x 888 km, 98.8° (Epoch: 19 May)

Event Time Altitude Azimuth Distance (km) Brightness Sun altitude
Rises 17:05:38 0° 156° (SSE) 3,464 6.9 -6.4°
Reaches altitude 10° 17:08:00 10° 155° (SSE) 2,530 6.2 -6.7°
Maximum altitude 17:13:38 79° 71° (ENE) 903 4.3 -7.4°
Drops below altitude 10° 17:19:19 10° 345° (NNW) 2,553 7.4 -8.2°
Sets 17:21:43 0° 345° (NNW) 3,498 8.2 -8.5°
